Regional Weather Roundup
Issued by NWS

Home | Current Version | Previous Version | Graphics & Text | Print | Product List | Glossary On
Versions: 1 2 3 4 5 6 7 8 9 10 11 12 13 14 15 16 17 18 19 20 21 22 23 24 25 26 27 28 29 30 31 32 33 34 35 36 37 38 39 40 41 42 43 44 45 46 47 48 49 50
000
ASUS43 KDMX 020407
RWRIA

WEATHER ROUNDUP FOR IOWA
NATIONAL WEATHER SERVICE DES MOINES IA
1100 PM CDT WED JUL 01 2015

NOTE: "FAIR" INDICATES FEW OR NO CLOUDS BELOW 12,000 FEET WITH NO
SIGNIFICANT WEATHER AND/OR OBSTRUCTIONS TO VISIBILITY.

* - THESE STATIONS ARE NOT NWS STATIONS...THUS NOT UNDER NWS
QUALITY CONTROL.  THEY ALSO DO NOT REPORT WEATHER SUCH
AS PRECIPITATION OR FOG.

IAZ001>003-012>014-020>022-031>034-043>046-020500-
   NORTHWEST IOWA

CITY           SKY/WX    TMP DP  RH WIND       PRES   REMARKS
CARROLL *      CLOUDY    63  57  82 E9        29.96F
CHEROKEE *     PTCLDY    63  57  82 E6        29.99R
DENISON *      PTCLDY    64  61  88 E9        29.94R
LE MARS *      CLEAR     66  57  72 E9G15     29.97S
ORANGE CITY *  PTCLDY    61  55  82 E8        29.98R
SHELDON *      CLOUDY    61  61 100 E8        29.98R
SIOUX CITY     CLEAR     67  59  75 E8        29.95R
SPENCER        MOCLDY    60  53  77 E3        30.00R
STORM LAKE *   PTCLDY    61  54  77 E8        29.99S
$$

IAZ055>058-069>071-079>083-090>094-020500-
   SOUTHWEST IOWA

CITY           SKY/WX    TMP DP  RH WIND       PRES   REMARKS
ATLANTIC *     CLOUDY    68  61  77 NE8       29.94R
AUDUBON *      CLEAR     64  57  77 E5        29.96S
CLARINDA *     PTCLDY    70  66  88 NE9G15    29.92S
COUNCIL BLFS * CLEAR     70  66  88 E10       29.94R
CRESTON *      CLOUDY    66  63  88 E12       29.94R
HARLAN  *      CLOUDY    68  64  88 E10       29.97S
LAMONI         MOCLDY    70  66  87 NE6       29.93R
RED OAK *      CLEAR     70  66  88 NE12      29.92R
SHENANDOAH *   MOCLDY    72  68  88 NE8       29.91R
$$

IAZ047>049-059>061-072>074-084-020500-
   CENTRAL IOWA

CITY           SKY/WX    TMP DP  RH WIND       PRES   REMARKS
AMES           CLEAR     61  55  81 NE6       29.98R
ANKENY *       PTCLDY    63  59  88 NE7       29.96S
CHARITON *     CLOUDY    66  61  82 NE7       29.94R
DES MOINES     MOCLDY    67  57  70 E9        29.95R
GRINNELL*      CLOUDY    63  57  82 NE10      29.98R
KNOXVILLE *    CLOUDY    66  59  77 NE6       29.94R
MARSHALLTOWN   CLEAR     59  54  83 NE7       29.99R
PELLA *        CLOUDY    66  63  88 NE3       29.97R
PERRY *        CLOUDY    64  59  82 E7        29.96S
$$

IAZ004>006-015-016-023>025-035-036-020500-
   NORTH CENTRAL IOWA

CITY           SKY/WX    TMP DP  RH WIND       PRES   REMARKS
ALGONA *       CLOUDY    59  54  82 E7        30.00S
CLARION *      CLEAR     57  54  88 E6        29.99F
ESTHERVILLE    PTCLDY    56  54  93 E6        30.00S
FORT DODGE *   CLEAR     57  54  88 E8        29.99S
MASON CITY     CLEAR     53  50  89 NE7       30.03R
FOREST CITY *  CLEAR     55  50  82 E3        30.01S
IOWA FALLS *     N/A     59  54  82 NE5       30.01S
$$

IAZ007>011-017>019-026>030-037>042-050>054-066-020500-
   NORTHEAST IOWA

CITY           SKY/WX    TMP DP  RH WIND       PRES   REMARKS
CEDAR RAPIDS   MOCLDY    62  56  80 NE8       29.97R
CHARLES CITY * CLEAR     55  55 100 NE5       30.01F
CLINTON *      CLOUDY    63  55  77 NE6       30.00S
DECORAH *        N/A    N/A N/A N/A MISG        N/A
DUBUQUE        PTCLDY    58  51  78 NE7       29.99R
MONTICELLO *   PTCLDY    59  57  94 CALM      29.98R
OELWEIN *        N/A    N/A N/A N/A NE3       30.01R
WATERLOO       MOCLDY    58  54  86 NE6       29.99R
$$

IAZ064-065-067-068-078-020500-
   EAST CENTRAL IOWA

CITY           SKY/WX    TMP DP  RH WIND       PRES   REMARKS
DAVENPORT      CLOUDY    63  55  75 NE7       29.97S
IOWA CITY      MOCLDY    64  55  72 NE7       29.98R
MT. PLEASANT * CLOUDY    68  57  68 NE9       29.95R
MUSCATINE *    CLOUDY    68  57  68 NE10      29.96R
QUAD CITIES    MOCLDY    66  53  63 NE10      29.96R
$$

IAZ062-063-075>077-085>089-095>099-020500-
   SOUTHEAST IOWA

CITY           SKY/WX    TMP DP  RH WIND       PRES   REMARKS
BURLINGTON     CLOUDY    68  62  81 NE9       29.93R
FAIRFIELD *    CLOUDY    66  59  77 NE9       29.95R
FORT MADISON * CLOUDY    66  63  88 NE7       29.94R
KEOKUK *       CLOUDY    70  64  83 E9        29.92R
OSKALOOSA *    CLOUDY    66  59  77 NE7       29.96R
CENTERVILLE *  MOCLDY    66  63  88 E9        29.94S
OTTUMWA        CLOUDY    67  61  81 NE8       29.93R
WASHINGTON *   CLOUDY    66  59  77 NE8       29.97R
$$

ABBREVIATIONS USED IN REMARKS
   TC - TEMPERATURES IN CELSIUS
  WCI - WIND CHILL INDEX
   HX - HEAT INDEX
  VSB - VISIBILITY
$$



USA.gov is the U.S. government's official web portal to all federal, state and local government web resources and services.